Nashua, NH

7:52 AM EST on February 24, 2017 (GMT -0500)
Boire

Weather History for KASH - July, 2013

Change the Weather History Date:

Saturday, July 27, 2013

  Actual Average Record
Temperature  
Mean Temperature 70 °F -  
Max Temperature 84 °F 82 °F 98 °F (1963)
Min Temperature 57 °F 59 °F 41 °F (1977)
Cooling Degree Days 6    
Growing Degree Days 20 (Base 50)    
Moisture  
Dew Point 60 °F    
Average Humidity 68    
Maximum Humidity 96    
Minimum Humidity 38    
Precipitation  
Precipitation 0.00 in - - ()
Sea Level Pressure  
Sea Level Pressure 30.75 in    
Wind  
Wind Speed 1 mph (NNW)    
Max Wind Speed 6 mph    
Max Gust Speed -    
Visibility 10 miles    
Events      
Averages and records for this station are not official NWS values.
T = Trace of Precipitation, MM = Missing Value Source: NWS Daily Summary

Daily Weather History Graph

Daily Weather History Graph

Search for Another Location

Airport or City:

Trip Planner

Search our weather history database for the weather conditions in past years. The results will help you decide how hot, cold, wet, or windy it might be!

Date:

Astronomy

Jul. 27, 2013 Rise Set
Actual Time 5:32 AM EDT 8:11 PM EDT
Civil Twilight 4:59 AM EDT 8:44 PM EDT
Nautical Twilight 4:19 AM EDT 9:25 PM EDT
Astronomical Twilight 3:32 AM EDT 10:11 PM EDT
Moon 10:47 PM EDT (7/27) 11:19 AM EDT (7/27)
Length of Visible Light 15h 44m
Length of Day
14h 39m
Waning Gibbous, 71% of the Moon is Illuminated
Jul 27
Waning Gibbous
Jul 29
Last Quarter
Aug 6
New
Aug 14
First Quarter
Aug 20
Full

Hourly Weather History & Observations

Time (EDT) Temp. Heat Index Dew Point Humidity Pressure Visibility Wind Dir Wind Speed Gust Speed Precip Events Conditions
12:51 AM 63.9 °F - 59.0 °F 84% 30.74 in 10.0 mi Calm Calm - N/A   Clear
1:51 AM 63.9 °F - 59.0 °F 84% 30.74 in 10.0 mi Calm Calm - N/A   Clear
2:51 AM 61.0 °F - 59.0 °F 93% 30.74 in 10.0 mi Calm Calm - N/A   Clear
3:51 AM 59.9 °F - 57.9 °F 93% 30.74 in 10.0 mi Calm Calm - N/A   Clear
4:51 AM 59.0 °F - 56.8 °F 93% 30.75 in 10.0 mi Calm Calm - N/A   Clear
5:51 AM 57.9 °F - 56.8 °F 96% 30.76 in 10.0 mi Calm Calm - N/A   Clear
6:51 AM 61.9 °F - 56.8 °F 84% 30.77 in 10.0 mi Calm Calm - N/A   Clear
7:51 AM 65.8 °F - 57.9 °F 76% 30.78 in 10.0 mi Calm Calm - N/A   Clear
8:51 AM 70.9 °F - 59.0 °F 66% 30.79 in 10.0 mi Calm Calm - N/A   Clear
9:51 AM 75.9 °F - 61.0 °F 60% 30.78 in 10.0 mi Calm Calm - N/A   Clear
10:51 AM 77.0 °F - 61.0 °F 58% 30.77 in 10.0 mi Variable 3.5 mph - N/A   Partly Cloudy
11:51 AM 79.9 °F - 57.9 °F 47% 30.77 in 10.0 mi NNW 3.5 mph - N/A   Partly Cloudy
12:51 PM 81.9 °F 81.4 °F 55.9 °F 41% 30.76 in 10.0 mi Calm Calm - N/A   Clear
1:51 PM 82.9 °F 82.8 °F 59.0 °F 44% 30.75 in 10.0 mi Variable 4.6 mph - N/A   Scattered Clouds
2:51 PM 82.9 °F 82.8 °F 59.0 °F 44% 30.74 in 10.0 mi Variable 5.8 mph - N/A   Scattered Clouds
3:51 PM 84.9 °F 83.9 °F 56.8 °F 38% 30.73 in 10.0 mi Calm Calm - N/A   Partly Cloudy
4:51 PM 83.8 °F 83.3 °F 57.9 °F 41% 30.72 in 10.0 mi Calm Calm - N/A   Partly Cloudy
5:51 PM 81.9 °F 82.2 °F 59.9 °F 47% 30.72 in 10.0 mi Calm Calm - N/A   Scattered Clouds
6:51 PM 81.0 °F 82.5 °F 63.9 °F 56% 30.71 in 10.0 mi Calm Calm - N/A   Partly Cloudy
7:51 PM 73.9 °F - 65.8 °F 76% 30.72 in 10.0 mi Calm Calm - 0.00 in   Partly Cloudy
8:51 PM 74.8 °F - 63.9 °F 69% 30.73 in 10.0 mi Calm Calm - N/A   Clear
9:51 PM 72.9 °F - 63.9 °F 73% 30.74 in 10.0 mi Calm Calm - N/A   Clear
10:51 PM 70.9 °F - 63.9 °F 78% 30.75 in 10.0 mi Calm Calm - N/A   Clear
11:51 PM 68.9 °F - 63.9 °F 84% 30.74 in 10.0 mi Calm Calm - N/A   Clear